Location: Aufkirchen
(47.9603°N, 11.3653°E)
Time: 15:04:25
(UTC+01:00)

Transit 2A Rocket - Pass Details

Date: 08 December 2020
Orbit: 592 x 910 km, 66.7° (Epoch: 21 January)

Event Time Altitude Azimuth Distance (km) Brightness Sun altitude
Rises 06:45:22 0° 328° (NNW) 3,192 - -10.6°
Exits shadow 06:46:53 - 335° (NNW) 2,677 7.4 -10.3°
Reaches altitude 10° 06:48:24 10° 345° (NNW) 2,201 7.0 -10.1°
Maximum altitude 06:52:08 21° 33° (NNE) 1,521 6.7 -9.5°
Drops below altitude 10° 06:55:39 10° 83° (E) 2,053 8.2 -9.0°
Sets 06:58:21 0° 100° (E) 2,914 9.8 -8.6°
